This is the latest recevied weather packets stored in our database for station/object VA7NEZ. If no packets are shown the sender has not sent any weather packets the latest 10 day(s).
| Time | Temp. | Humidity | Pressure | Rain* | Wind** | Luminosity | Snow |
|---|---|---|---|---|---|---|---|
| 1778356197 | 20° C | 32% | 1018.3 hPa | 0 mm | - | - | - |
| 1778355691 | 20° C | 34% | 1018.5 hPa | 0 mm | - | - | - |
| 1778355113 | 20° C | 36% | 1018.5 hPa | 0 mm | - | - | - |
| 1778354516 | 19.44° C | 38% | 1018.8 hPa | 0 mm | - | - | - |
| 1778353962 | 19.44° C | 35% | 1019.1 hPa | 0 mm | - | - | - |
| 1778353396 | 19.44° C | 34% | 1019.2 hPa | 0 mm | - | - | - |
| 1778352916 | 18.89° C | 33% | 1019.4 hPa | 0 mm | - | - | - |
| 1778352362 | 18.89° C | 34% | 1019.3 hPa | 0 mm | - | - | - |
| 1778351861 | 18.33° C | 35% | 1019.5 hPa | 0 mm | - | - | - |
| 1778351321 | 17.78° C | 36% | 1019.6 hPa | 0 mm | - | - | - |
| 1778350786 | 17.78° C | 37% | 1019.7 hPa | 0 mm | - | - | - |
| 1778350251 | 17.22° C | 39% | 1019.7 hPa | 0 mm | - | - | - |
| 1778349691 | 17.22° C | 39% | 1019.7 hPa | 0 mm | - | - | - |
| 1778349091 | 17.22° C | 38% | 1019.8 hPa | 0 mm | - | - | - |
| 1778348487 | 16.67° C | 41% | 1019.7 hPa | 0 mm | - | - | - |
| 1778347986 | 16.11° C | 39% | 1020.1 hPa | 0 mm | - | - | - |
| 1778347416 | 16.11° C | 41% | 1020.2 hPa | 0 mm | - | - | - |
| 1778346322 | 15.56° C | 42% | 1020.3 hPa | 0 mm | - | - | - |
| 1778345786 | 15° C | 43% | 1020.4 hPa | 0 mm | - | - | - |
| 1778344711 | 14.44° C | 43% | 1020.7 hPa | 0 mm | - | - | - |
| 1778344136 | 13.89° C | 45% | 1020.8 hPa | 0 mm | - | - | - |
| 1778343631 | 13.89° C | 47% | 1020.9 hPa | 0 mm | - | - | - |
| 1778343146 | 13.89° C | 45% | 1020.9 hPa | 0 mm | - | - | - |
| 1778342551 | 13.89° C | 45% | 1020.9 hPa | 0 mm | - | - | - |
| 1778341421 | 13.33° C | 48% | 1021.1 hPa | 0 mm | - | - | - |
* Rain latest hour (hover to see other rain measurements)
** Current wind speed in m/s (hover to see current wind gust speed)